Tracking 31027 objects as of 19-Jul-2025
HD Live streaming from Space Station
objects crossing your sky now

STARLINK-33831

Track STARLINK-33831 now!
10-day predictions
STARLINK-33831 is classified as:


NORAD ID: 63595
Int'l Code: 2025-076AC
Perigee: 487.9 km
Apogee: 492.3 km
Inclination: 43.0 °
Period: 94.3 minutes
Semi major axis: 6861 km
RCS: Unknown
Launch date: April 14, 2025
Source: United States (US)
Launch site: AIR FORCE EASTERN TEST RANGE (AFETR)
Your satellite tracking list
COSMOS 1656
Track 1 satellite(s)




NASA's NSSDC Master Catalog

Two Line Element Set (TLE):
1 63595U 25076AC  25199.42319417  .00022603  00000-0  82745-3 0  9997
2 63595  43.0055 204.5285 0003238 283.8451  76.2040 15.27614879 16006
Source of the keplerian elements: AFSPC